ONEWEB-0118 (47264 NORAD) Tracking and Keplerian Element Data

This shows tracking and keplerian element data for the satellite.

Feedback or suggestion? Click here.




ElementValue
Catalog47264
NameONEWEB-0118
Epoch Orbit172
Epoch Day60.91667824
Epoch Year2021
RAAN16.1897
Inclination87.6804
Eccentricity0.0013057
Argument of Perigee24.4495
Mean Anonmoly50.5759
Mean Motion14.00623589
Decay Rate-0.01343497
L11 47264U 20100G 21060.91667824 -.01343497 00000-0 -96635+0 0 9999
L22 47264 87.6804 16.1897 0013057 24.4495 50.5759 14.00623589 1723

Live tracking and technical data element details for ONEWEB-0118 (NORAD 47264). ONEWEB-0118 can be tracked NOW for your location showing map with azimuth and elevation plus other details from your city location.

Track the satellite on the map from your city or location and see movement details for azimuth, elevation, latitude, longitude, range, height, and movement on the map or in text.







IsCatalogInMostPopularTable: catalog: 47264, numindb: 21
Update: records affected: 1



GetName: 47264 ONEWEB-0118

Hit Count: updated at: Tue, 02 Mar 2021 13:20:36 GMT